DLH2EO YBBN-YSSY

Flight info

Callsign DLH2EO
Flight time 1h 11m
Altitude 34000
Route BN H91 IGDAM/N0441F350 H652 TESAT
Aircraft A320/M-SDE3FGHIRWY/LB1

Departure

Time 2026-05-06 10:53
Airport Brisbane International Airport (YBBN)

Arrival

Time 2026-05-06 12:05
Airport Sydney Kingsford Smith International Airport (YSSY)
Time Latitude Longitude Altitude Speed Heading
2026-05-06 10:31 -27.38429 153.12153 18 ft 0 kts 275°
2026-05-06 10:43 -27.38430 153.12166 18 ft 4 kts 272°
2026-05-06 10:43 -27.38431 153.12196 18 ft 4 kts 271°
2026-05-06 10:43 -27.38432 153.12219 18 ft 1 kts 270°
2026-05-06 10:44 -27.38432 153.12223 18 ft 0 kts 270°
2026-05-06 10:46 -27.38433 153.12222 18 ft 1 kts 251°
2026-05-06 10:46 -27.38436 153.12221 18 ft 1 kts 224°
2026-05-06 10:46 -27.38441 153.12226 21 ft 0 kts 136°
2026-05-06 10:47 -27.38440 153.12249 20 ft 4 kts 89°
2026-05-06 10:47 -27.38439 153.12277 19 ft 3 kts 86°
2026-05-06 10:47 -27.38438 153.12297 18 ft 2 kts 85°
2026-05-06 10:47 -27.38436 153.12318 18 ft 6 kts 83°
2026-05-06 10:48 -27.38428 153.12391 18 ft 11 kts 95°
2026-05-06 10:48 -27.38452 153.12484 18 ft 13 kts 76°
2026-05-06 10:48 -27.38381 153.12539 18 ft 11 kts 24°
2026-05-06 10:48 -27.38316 153.12575 18 ft 10 kts 30°
2026-05-06 10:49 -27.38265 153.12611 18 ft 8 kts 32°
2026-05-06 10:49 -27.38221 153.12638 18 ft 6 kts 28°
2026-05-06 10:49 -27.38183 153.12659 19 ft 8 kts 25°
2026-05-06 10:49 -27.38100 153.12703 20 ft 12 kts 26°
2026-05-06 10:50 -27.38038 153.12737 19 ft 4 kts 26°
2026-05-06 10:50 -27.38010 153.12759 18 ft 5 kts 47°
2026-05-06 10:50 -27.37999 153.12787 18 ft 5 kts 76°
2026-05-06 10:50 -27.38004 153.12843 18 ft 10 kts 117°
2026-05-06 10:51 -27.38040 153.12918 19 ft 10 kts 116°
2026-05-06 10:51 -27.38058 153.12958 18 ft 0 kts 117°
2026-05-06 10:52 -27.38072 153.12989 18 ft 15 kts 117°
2026-05-06 10:52 -27.38165 153.13026 19 ft 16 kts 194°
2026-05-06 10:52 -27.38358 153.12919 21 ft 62 kts 205°
2026-05-06 10:53 -27.38948 153.12590 18 ft 123 kts 206°
2026-05-06 10:53 -27.39861 153.12070 31 ft 168 kts 204°
2026-05-06 10:53 -27.40908 153.11395 520 ft 178 kts 210°
2026-05-06 10:53 -27.42006 153.10751 1149 ft 176 kts 194°
2026-05-06 10:54 -27.43228 153.10760 1619 ft 187 kts 159°
2026-05-06 10:54 -27.44433 153.11505 2012 ft 208 kts 148°
2026-05-06 10:54 -27.45723 153.12370 2604 ft 221 kts 149°
2026-05-06 10:54 -27.47067 153.13255 3377 ft 225 kts 150°
2026-05-06 10:55 -27.48423 153.14131 4221 ft 225 kts 153°
2026-05-06 10:55 -27.49925 153.14671 4943 ft 231 kts 174°
2026-05-06 10:55 -27.51576 153.14541 5331 ft 254 kts 192°
2026-05-06 10:55 -27.53356 153.14086 5831 ft 270 kts 193°
2026-05-06 10:56 -27.55204 153.13610 5996 ft 273 kts 193°
2026-05-06 10:56 -27.57026 153.12929 6498 ft 277 kts 199°
2026-05-06 10:56 -27.58856 153.12194 7302 ft 281 kts 200°
2026-05-06 10:56 -27.60717 153.11466 8079 ft 286 kts 200°
2026-05-06 10:57 -27.62618 153.10746 8884 ft 290 kts 199°
2026-05-06 10:57 -27.64562 153.10080 9659 ft 294 kts 199°
2026-05-06 10:57 -27.66552 153.09429 10368 ft 302 kts 198°
2026-05-06 10:57 -27.68653 153.08744 10600 ft 326 kts 198°
2026-05-06 10:58 -27.70870 153.08019 10891 ft 344 kts 198°
2026-05-06 10:58 -27.73199 153.07254 11507 ft 350 kts 198°
2026-05-06 10:58 -27.75550 153.06476 12204 ft 354 kts 198°
2026-05-06 10:58 -27.77925 153.05689 12916 ft 357 kts 199°
2026-05-06 10:59 -27.80319 153.04893 13606 ft 360 kts 199°
2026-05-06 10:59 -27.82728 153.04059 14284 ft 363 kts 201°
2026-05-06 10:59 -27.85114 153.03099 14879 ft 366 kts 204°
2026-05-06 10:59 -27.87498 153.02049 15457 ft 369 kts 205°
2026-05-06 11:00 -27.89868 153.00964 16038 ft 373 kts 206°
2026-05-06 11:00 -27.92290 152.99851 16627 ft 377 kts 206°
2026-05-06 11:00 -27.94745 152.98737 17196 ft 381 kts 206°
2026-05-06 11:00 -27.97228 152.97627 17755 ft 385 kts 206°
2026-05-06 11:01 -27.99742 152.96515 18307 ft 390 kts 206°
2026-05-06 11:01 -28.02287 152.95398 18790 ft 393 kts 206°
2026-05-06 11:01 -28.04849 152.94280 19300 ft 396 kts 206°
2026-05-06 11:01 -28.07397 152.93167 19794 ft 398 kts 206°
2026-05-06 11:02 -28.09985 152.92032 20301 ft 400 kts 207°
2026-05-06 11:02 -28.12590 152.90881 20818 ft 402 kts 207°
2026-05-06 11:02 -28.15205 152.89720 21313 ft 404 kts 207°
2026-05-06 11:02 -28.17839 152.88550 21795 ft 407 kts 207°
2026-05-06 11:03 -28.20482 152.87377 22260 ft 409 kts 207°
2026-05-06 11:03 -28.23144 152.86195 22732 ft 412 kts 207°
2026-05-06 11:03 -28.25823 152.85003 23202 ft 414 kts 207°
2026-05-06 11:03 -28.28515 152.83802 23659 ft 416 kts 207°
2026-05-06 11:04 -28.31224 152.82590 24066 ft 419 kts 208°
2026-05-06 11:04 -28.33914 152.81387 24451 ft 421 kts 208°
2026-05-06 11:04 -28.36651 152.80165 24851 ft 422 kts 208°
2026-05-06 11:04 -28.39388 152.78942 25235 ft 423 kts 208°
2026-05-06 11:05 -28.42138 152.77713 25583 ft 425 kts 208°
2026-05-06 11:05 -28.44904 152.76474 25923 ft 428 kts 208°
2026-05-06 11:05 -28.47681 152.75227 26273 ft 430 kts 208°
2026-05-06 11:05 -28.50471 152.73977 26602 ft 432 kts 208°
2026-05-06 11:06 -28.53244 152.72738 26925 ft 434 kts 209°
2026-05-06 11:06 -28.56062 152.71483 27274 ft 436 kts 209°
2026-05-06 11:06 -28.58900 152.70220 27623 ft 438 kts 209°
2026-05-06 11:06 -28.61745 152.68947 28001 ft 440 kts 209°
2026-05-06 11:07 -28.64604 152.67663 28343 ft 442 kts 209°
2026-05-06 11:07 -28.67473 152.66372 28662 ft 444 kts 210°
2026-05-06 11:07 -28.70321 152.65087 28977 ft 446 kts 210°
2026-05-06 11:07 -28.73222 152.63781 29265 ft 448 kts 210°
2026-05-06 11:08 -28.76138 152.62471 29562 ft 450 kts 210°
2026-05-06 11:08 -28.79056 152.61161 29852 ft 452 kts 210°
2026-05-06 11:08 -28.81987 152.59843 30131 ft 454 kts 210°
2026-05-06 11:08 -28.84924 152.58485 30398 ft 452 kts 213°
2026-05-06 11:09 -28.87689 152.56879 30641 ft 450 kts 216°
2026-05-06 11:09 -28.90471 152.55223 30887 ft 451 kts 216°
2026-05-06 11:09 -28.93253 152.53564 31177 ft 451 kts 216°
2026-05-06 11:09 -28.96032 152.51912 31548 ft 449 kts 216°
2026-05-06 11:10 -28.98801 152.50267 31894 ft 447 kts 216°
2026-05-06 11:10 -29.01563 152.48622 32202 ft 447 kts 216°
2026-05-06 11:10 -29.04319 152.46979 32548 ft 446 kts 217°
2026-05-06 11:10 -29.07062 152.45342 32898 ft 445 kts 216°
2026-05-06 11:11 -29.09812 152.43700 33230 ft 443 kts 217°
2026-05-06 11:11 -29.12550 152.42064 33548 ft 442 kts 217°
2026-05-06 11:11 -29.15269 152.40441 33879 ft 441 kts 217°
2026-05-06 11:11 -29.17956 152.38835 34114 ft 441 kts 217°
2026-05-06 11:12 -29.20666 152.37219 34157 ft 437 kts 217°
2026-05-06 11:12 -29.26054 152.34005 34159 ft 434 kts 217°
2026-05-06 11:13 -29.31389 152.30796 34159 ft 434 kts 217°
2026-05-06 11:13 -29.36733 152.27575 34152 ft 434 kts 217°
2026-05-06 11:14 -29.42098 152.24352 34152 ft 434 kts 217°
2026-05-06 11:14 -29.47422 152.21149 34151 ft 435 kts 217°
2026-05-06 11:15 -29.52796 152.17923 34171 ft 434 kts 217°
2026-05-06 11:15 -29.58118 152.14716 34153 ft 434 kts 217°
2026-05-06 11:16 -29.63481 152.11476 34149 ft 434 kts 217°
2026-05-06 11:16 -29.68846 152.08262 34142 ft 437 kts 213°
2026-05-06 11:16 -29.71752 152.07053 34144 ft 450 kts 203°
2026-05-06 11:17 -29.74823 152.06243 34174 ft 453 kts 201°
2026-05-06 11:17 -29.80939 152.04662 34156 ft 452 kts 202°
2026-05-06 11:18 -29.87084 152.03057 34142 ft 453 kts 202°
2026-05-06 11:18 -29.93229 152.01447 34145 ft 453 kts 202°
2026-05-06 11:19 -29.99337 151.99846 34158 ft 452 kts 202°
2026-05-06 11:19 -30.05487 151.98231 34148 ft 452 kts 202°
2026-05-06 11:20 -30.11629 151.96622 34148 ft 453 kts 202°
2026-05-06 11:20 -30.17738 151.95013 34142 ft 452 kts 202°
2026-05-06 11:21 -30.23884 151.93408 34139 ft 452 kts 202°
2026-05-06 11:21 -30.30060 151.91785 34152 ft 455 kts 202°
2026-05-06 11:22 -30.35953 151.89499 34150 ft 443 kts 211°
2026-05-06 11:22 -30.41666 151.86834 34149 ft 442 kts 211°
2026-05-06 11:23 -30.47348 151.84189 34176 ft 442 kts 211°
2026-05-06 11:23 -30.53051 151.81537 34164 ft 441 kts 211°
2026-05-06 11:24 -30.57805 151.79322 34149 ft 441 kts 211°
2026-05-06 11:24 -30.64427 151.76229 34144 ft 441 kts 211°
2026-05-06 11:25 -30.69159 151.74015 34171 ft 441 kts 211°
2026-05-06 11:25 -30.74845 151.71348 34151 ft 440 kts 212°
2026-05-06 11:26 -30.80523 151.68678 34139 ft 440 kts 212°
2026-05-06 11:26 -30.86205 151.66013 34140 ft 439 kts 212°
2026-05-06 11:27 -30.91839 151.63367 34162 ft 439 kts 212°
2026-05-06 11:27 -30.97511 151.60707 34154 ft 439 kts 212°
2026-05-06 11:28 -31.03176 151.58040 34149 ft 439 kts 212°
2026-05-06 11:28 -31.08837 151.55366 34134 ft 438 kts 212°
2026-05-06 11:29 -31.14495 151.52687 34155 ft 438 kts 212°
2026-05-06 11:29 -31.20116 151.50022 34144 ft 438 kts 212°
2026-05-06 11:30 -31.25763 151.47349 34145 ft 438 kts 212°
2026-05-06 11:30 -31.31417 151.44670 34130 ft 438 kts 212°
2026-05-06 11:31 -31.37084 151.41984 34157 ft 438 kts 212°
2026-05-06 11:31 -31.42719 151.39361 34146 ft 439 kts 211°
2026-05-06 11:32 -31.48453 151.36820 34146 ft 440 kts 211°
2026-05-06 11:32 -31.54184 151.34295 34133 ft 439 kts 211°
2026-05-06 11:33 -31.59871 151.31762 34151 ft 439 kts 211°
2026-05-06 11:33 -31.65582 151.29200 34150 ft 439 kts 211°
2026-05-06 11:34 -31.71296 151.26635 33833 ft 439 kts 211°
2026-05-06 11:34 -31.74153 151.25354 33568 ft 439 kts 211°
2026-05-06 11:34 -31.77009 151.24074 33300 ft 438 kts 210°
2026-05-06 11:34 -31.79825 151.22811 33072 ft 438 kts 210°
2026-05-06 11:35 -31.82689 151.21571 32805 ft 442 kts 205°
2026-05-06 11:35 -31.85762 151.20927 32538 ft 452 kts 195°
2026-05-06 11:35 -31.88884 151.20534 32294 ft 451 kts 195°
2026-05-06 11:35 -31.92004 151.20164 32044 ft 450 kts 194°
2026-05-06 11:36 -31.95118 151.19807 31795 ft 448 kts 194°
2026-05-06 11:36 -31.98216 151.19453 31547 ft 447 kts 194°
2026-05-06 11:36 -32.01309 151.19097 31332 ft 444 kts 194°
2026-05-06 11:36 -32.04381 151.18741 31094 ft 443 kts 193°
2026-05-06 11:37 -32.07442 151.18383 30847 ft 441 kts 193°
2026-05-06 11:37 -32.10453 151.18028 30608 ft 438 kts 193°
2026-05-06 11:37 -32.13488 151.17667 30371 ft 437 kts 193°
2026-05-06 11:37 -32.16510 151.17305 30128 ft 435 kts 193°
2026-05-06 11:38 -32.19522 151.16941 29845 ft 434 kts 193°
2026-05-06 11:38 -32.22516 151.16580 29567 ft 432 kts 193°
2026-05-06 11:38 -32.25502 151.16224 29306 ft 430 kts 192°
2026-05-06 11:38 -32.28474 151.15873 29034 ft 428 kts 192°
2026-05-06 11:39 -32.31405 151.15527 28766 ft 427 kts 192°
2026-05-06 11:39 -32.34358 151.15177 28498 ft 425 kts 192°
2026-05-06 11:39 -32.37293 151.14829 28233 ft 423 kts 192°
2026-05-06 11:39 -32.40217 151.14481 27969 ft 421 kts 192°
2026-05-06 11:40 -32.43129 151.14129 27708 ft 419 kts 192°
2026-05-06 11:40 -32.46027 151.13783 27451 ft 417 kts 192°
2026-05-06 11:40 -32.48924 151.13439 27192 ft 416 kts 191°
2026-05-06 11:40 -32.51765 151.13099 26942 ft 414 kts 191°
2026-05-06 11:41 -32.54622 151.12754 26692 ft 413 kts 191°
2026-05-06 11:41 -32.57476 151.12407 26439 ft 411 kts 191°
2026-05-06 11:41 -32.60324 151.12062 26187 ft 409 kts 191°
2026-05-06 11:41 -32.63153 151.11721 25943 ft 408 kts 191°
2026-05-06 11:42 -32.65972 151.11381 25704 ft 406 kts 191°
2026-05-06 11:42 -32.68742 151.11052 25294 ft 403 kts 191°
2026-05-06 11:42 -32.71524 151.10721 24764 ft 401 kts 189°
2026-05-06 11:42 -32.74309 151.10387 24180 ft 401 kts 189°
2026-05-06 11:43 -32.77084 151.10051 23597 ft 401 kts 189°
2026-05-06 11:43 -32.79859 151.09712 22918 ft 400 kts 189°
2026-05-06 11:43 -32.82630 151.09376 22257 ft 400 kts 189°
2026-05-06 11:44 -32.88142 151.08715 20978 ft 399 kts 188°
2026-05-06 11:44 -32.90910 151.08381 20355 ft 399 kts 188°
2026-05-06 11:44 -32.93674 151.08046 19754 ft 399 kts 188°
2026-05-06 11:44 -32.96435 151.07711 19160 ft 398 kts 188°
2026-05-06 11:45 -32.99188 151.07375 18572 ft 397 kts 188°
2026-05-06 11:45 -33.01934 151.07042 17926 ft 396 kts 188°
2026-05-06 11:45 -33.04640 151.06715 17277 ft 395 kts 188°
2026-05-06 11:45 -33.07374 151.06386 16638 ft 395 kts 188°
2026-05-06 11:46 -33.10103 151.06058 16010 ft 394 kts 188°
2026-05-06 11:46 -33.12829 151.05725 15393 ft 393 kts 188°
2026-05-06 11:46 -33.15551 151.05390 14789 ft 393 kts 187°
2026-05-06 11:46 -33.18278 151.05060 14200 ft 392 kts 187°
2026-05-06 11:47 -33.20996 151.04735 13568 ft 391 kts 187°
2026-05-06 11:47 -33.23707 151.04520 12916 ft 391 kts 180°
2026-05-06 11:47 -33.26414 151.04901 12285 ft 391 kts 172°
2026-05-06 11:47 -33.29089 151.05413 11661 ft 389 kts 172°
2026-05-06 11:48 -33.31723 151.05921 11062 ft 386 kts 172°
2026-05-06 11:48 -33.34372 151.06435 10457 ft 384 kts 172°
2026-05-06 11:48 -33.37003 151.06943 9849 ft 381 kts 172°
2026-05-06 11:48 -33.39612 151.07443 9195 ft 378 kts 172°
2026-05-06 11:49 -33.42196 151.07940 8559 ft 374 kts 172°
2026-05-06 11:49 -33.44759 151.08432 7931 ft 371 kts 171°
2026-05-06 11:49 -33.47297 151.08921 7309 ft 367 kts 171°
2026-05-06 11:49 -33.49784 151.09398 6711 ft 364 kts 171°
2026-05-06 11:50 -33.52276 151.09874 6219 ft 357 kts 171°
2026-05-06 11:50 -33.54680 151.10334 6076 ft 341 kts 171°
2026-05-06 11:50 -33.56959 151.10772 6093 ft 321 kts 171°
2026-05-06 11:50 -33.59100 151.11183 6098 ft 302 kts 171°
2026-05-06 11:51 -33.61097 151.11568 6095 ft 287 kts 171°
2026-05-06 11:51 -33.63056 151.11949 6096 ft 284 kts 171°
2026-05-06 11:51 -33.65012 151.12337 6096 ft 284 kts 170°
2026-05-06 11:51 -33.66963 151.12727 6095 ft 284 kts 170°
2026-05-06 11:52 -33.68912 151.13117 6096 ft 284 kts 170°
2026-05-06 11:52 -33.70867 151.13504 6097 ft 285 kts 170°
2026-05-06 11:52 -33.72829 151.13887 6097 ft 285 kts 170°
2026-05-06 11:52 -33.74786 151.14266 6095 ft 285 kts 170°
2026-05-06 11:53 -33.76723 151.14640 6092 ft 284 kts 170°
2026-05-06 11:53 -33.78677 151.15016 6092 ft 284 kts 171°
2026-05-06 11:53 -33.80641 151.15297 6091 ft 284 kts 179°
2026-05-06 11:53 -33.82612 151.15062 6092 ft 284 kts 193°
2026-05-06 11:54 -33.84540 151.14502 6092 ft 285 kts 194°
2026-05-06 11:54 -33.86466 151.13943 6091 ft 284 kts 194°
2026-05-06 11:54 -33.88368 151.13395 6094 ft 285 kts 194°
2026-05-06 11:54 -33.90304 151.12837 6091 ft 286 kts 194°
2026-05-06 11:55 -33.92239 151.12280 6092 ft 286 kts 194°
2026-05-06 11:55 -33.94174 151.11724 6092 ft 286 kts 194°
2026-05-06 11:55 -33.96108 151.11167 6091 ft 286 kts 194°
2026-05-06 11:55 -33.98046 151.10608 5921 ft 287 kts 194°
2026-05-06 11:56 -33.99975 151.10049 5679 ft 283 kts 194°
2026-05-06 11:56 -34.01888 151.09494 5485 ft 282 kts 194°
2026-05-06 11:56 -34.03770 151.08950 5301 ft 281 kts 194°
2026-05-06 11:56 -34.05665 151.08404 5110 ft 279 kts 193°
2026-05-06 11:57 -34.07576 151.07977 4921 ft 278 kts 184°
2026-05-06 11:57 -34.09499 151.08112 4738 ft 277 kts 168°
2026-05-06 11:57 -34.11385 151.08606 4550 ft 277 kts 167°
2026-05-06 11:57 -34.13268 151.09098 4363 ft 276 kts 167°
2026-05-06 11:58 -34.15141 151.09584 4180 ft 274 kts 167°
2026-05-06 11:58 -34.16967 151.10086 3998 ft 264 kts 161°
2026-05-06 11:58 -34.18486 151.11196 3828 ft 251 kts 131°
2026-05-06 11:58 -34.19286 151.12977 3648 ft 237 kts 99°
2026-05-06 11:59 -34.19347 151.14916 3475 ft 228 kts 85°
2026-05-06 11:59 -34.19229 151.16793 3300 ft 226 kts 83°
2026-05-06 11:59 -34.19054 151.18669 3164 ft 225 kts 81°
2026-05-06 11:59 -34.18587 151.20444 3084 ft 221 kts 53°
2026-05-06 12:00 -34.17422 151.21612 3092 ft 220 kts 24°
2026-05-06 12:00 -34.16032 151.22393 3084 ft 221 kts 19°
2026-05-06 12:00 -34.14528 151.22706 3096 ft 220 kts 356°
2026-05-06 12:00 -34.13019 151.22390 3086 ft 217 kts 347°
2026-05-06 12:01 -34.11583 151.22010 2992 ft 208 kts 348°
2026-05-06 12:01 -34.10173 151.21640 2762 ft 206 kts 348°
2026-05-06 12:01 -34.08768 151.21274 2498 ft 207 kts 348°
2026-05-06 12:01 -34.07351 151.20905 2224 ft 208 kts 348°
2026-05-06 12:02 -34.05971 151.20546 1964 ft 200 kts 348°
2026-05-06 12:02 -34.04657 151.20204 1686 ft 187 kts 349°
2026-05-06 12:02 -34.03421 151.19883 1437 ft 177 kts 349°
2026-05-06 12:02 -34.02240 151.19551 1152 ft 172 kts 346°
2026-05-06 12:03 -34.01124 151.19240 994 ft 154 kts 350°
2026-05-06 12:03 -34.00090 151.18998 691 ft 151 kts 348°
2026-05-06 12:03 -33.99090 151.18733 475 ft 146 kts 347°
2026-05-06 12:03 -33.98093 151.18490 322 ft 145 kts 349°
2026-05-06 12:04 -33.97117 151.18236 178 ft 144 kts 347°
2026-05-06 12:04 -33.96164 151.17995 51 ft 141 kts 348°
2026-05-06 12:04 -33.95320 151.17774 26 ft 104 kts 347°
2026-05-06 12:04 -33.94766 151.17630 23 ft 60 kts 347°
2026-05-06 12:05 -33.94393 151.17533 24 ft 47 kts 347°
2026-05-06 12:05 -33.94144 151.17470 22 ft 18 kts 349°
2026-05-06 12:05 -33.93990 151.17437 18 ft 25 kts 355°
2026-05-06 12:05 -33.93906 151.17515 19 ft 11 kts 75°
2026-05-06 12:06 -33.93887 151.17593 19 ft 6 kts 73°
2026-05-06 12:06 -33.93881 151.17619 19 ft 2 kts 73°
2026-05-06 12:06 -33.93878 151.17630 19 ft 1 kts 73°
2026-05-06 12:06 -33.93876 151.17636 19 ft 1 kts 73°
2026-05-06 12:07 -33.93864 151.17686 19 ft 8 kts 73°
2026-05-06 12:07 -33.93850 151.17738 20 ft 5 kts 72°
2026-05-06 12:07 -33.93844 151.17767 21 ft 3 kts 76°
2026-05-06 12:07 -33.93835 151.17811 22 ft 5 kts 76°
2026-05-06 12:08 -33.93828 151.17842 24 ft 9 kts 76°
2026-05-06 12:08 -33.93806 151.17932 28 ft 9 kts 72°
2026-05-06 12:08 -33.93792 151.17989 30 ft 5 kts 75°
2026-05-06 12:08 -33.93788 151.18007 30 ft 0 kts 75°
2026-05-06 12:10 -33.93780 151.18041 31 ft 12 kts 72°
2026-05-06 12:11 -33.93717 151.18069 31 ft 7 kts 354°
2026-05-06 12:11 -33.93687 151.18041 31 ft 0 kts 295°
2026-05-06 12:12 -33.93686 151.18037 31 ft 4 kts 289°
2026-05-06 12:12 -33.93680 151.18011 31 ft 2 kts 281°
2026-05-06 12:12 -33.93678 151.18000 31 ft 1 kts 281°
2026-05-06 12:13 -33.93678 151.17995 31 ft 0 kts 279°
2026-05-06 12:13 -33.93677 151.17991 31 ft 0 kts 279°
2026-05-06 12:13 -33.93676 151.17986 31 ft 1 kts 279°
2026-05-06 12:13 -33.93676 151.17984 31 ft 0 kts 279°